This demonstration page uses our WeatherBlox Daily Observations layout. Learn more.

Left ArrowRight Arrow

44.89941, -97.11507

Hourly Observations for March 18, 2017

Temp ( °F °C ) Dew Point ( °F °C ) Humidity (%) Winds ( mph kmh ) Pressure ( in mb ) Visibility ( mi km ) Precip ( " mm )
12:53 am 00:53 Clear 28 -2.2 23 -5 81 81 NNW 16 26 30.32 1027 10 16 0.00 0.00
1:53 am 01:53 Clear 27 -2.8 22 -5.6 81 81 NNW 16 26 30.33 1027 10 16 0.00 0.00
2:53 am 02:53 Clear 26 -3.3 21 -6.1 81 81 NNW 14 22 30.35 1028 10 16 0.00 0.00
3:53 am 03:53 Clear 25 -3.9 21 -6.1 85 85 NNW 13 20 30.35 1028 10 16 0.00 0.00
4:53 am 04:53 Clear 23 -5 20 -6.7 88 88 NNW 9 15 30.35 1028 10 16 0.00 0.00
5:53 am 05:53 Clear 22 -5.6 19 -7.2 89 89 NNW 8 13 30.37 1028 10 16 0.00 0.00
6:53 am 06:53 Clear 20 -6.7 18 -7.8 92 92 N 5 7 30.38 1029 10 16 0.00 0.00
7:53 am 07:53 Sunny 20 -6.7 17 -8.3 89 89 NNW 5 7 30.39 1029 10 16 0.00 0.00
8:53 am 08:53 Sunny 23 -5 18 -7.8 81 81 NW 7 11 30.40 1029 10 16 0.00 0.00
9:53 am 09:53 Sunny 25 -3.9 20 -6.7 81 81 WNW 5 7 30.41 1030 10 16 0.00 0.00
10:53 am 10:53 Sunny 29 -1.7 21 -6.1 72 72 Calm 30.40 1029 10 16 0.00 0.00
11:53 am 11:53 Mostly Cloudy 34 1.1 21 -6.1 59 59 ENE 5 7 30.38 1029 10 16 0.00 0.00
12:53 pm 12:53 Cloudy 35 1.7 21 -6.1 57 57 Calm 30.37 1028 10 16 0.00 0.00
1:53 pm 13:53 Cloudy 36 2.2 21 -6.1 55 55 SW 5 7 30.35 1028 10 16 0.00 0.00
2:53 pm 14:53 Mostly Cloudy 39 3.9 22 -5.6 50 50 Calm 30.32 1027 10 16 0.00 0.00
3:53 pm 15:53 Sunny 41 5 22 -5.6 47 47 SSE 6 9 30.29 1026 10 16 0.00 0.00
4:53 pm 16:53 Sunny 43 6.1 24 -4.4 47 47 SSE 10 17 30.26 1025 10 16 0.00 0.00
5:53 pm 17:53 Sunny 43 6.1 25 -3.9 49 49 SSE 10 17 30.24 1024 10 16 0.00 0.00
6:53 pm 18:53 Sunny 42 5.6 27 -2.8 55 55 SSE 9 15 30.24 1024 10 16 0.00 0.00
7:53 pm 19:53 Clear 38 3.3 26 -3.3 62 62 SSE 9 15 30.23 1024 10 16 0.00 0.00
8:53 pm 20:53 Clear 38 3.3 28 -2.2 68 68 ESE 6 9 30.22 1024 10 16 0.00 0.00
9:53 pm 21:53 Clear 38 3.3 28 -2.2 68 68 SE 10 17 30.20 1023 10 16 0.00 0.00
10:53 pm 22:53 Clear 38 3.3 27 -2.8 65 65 SE 13 20 30.17 1022 10 16 0.00 0.00
11:53 pm 23:53 Clear 38 3.3 27 -2.8 65 65 SSE 16 26 30.14 1021 10 16 0.00 0.00

Powered by AerisWeather